Location: Leiter
(44.7178°N, 106.2687°W)
Time: 02:50:11
(UTC+00:00)

ESTCUBE 1 - Pass Details

Date: 04 July 2022
Orbit: 646 x 657 km, 97.9° (Epoch: 13 August)

Event Time Altitude Azimuth Distance (km) Brightness Sun altitude
Exits shadow 06:38:28 10° 250° (WSW) 2,027 ? -22.0°
Maximum altitude 06:40:04 12° 272° (W) 1,915 ? -22.1°
Drops below altitude 10° 06:41:49 10° 295° (WNW) 2,054 ? -22.1°
Sets 06:45:29 0° 326° (NW) 2,974 ? -22.2°
